Wahoo, NE

11:45 AM CST on February 14, 2016 (GMT -0600)
Wahoo Municipal

Weather History for KAHQ - December, 2013

Change the Weather History Date:

Monday, December 30, 2013

  Actual Average Record
Temperature  
Mean Temperature 22 °F -  
Max Temperature 41 °F 29 °F 58 °F (1965)
Min Temperature 4 °F 12 °F -11 °F (1968)
Degree Days  
Heating Degree Days 42    
Moisture  
Dew Point 6 °F    
Average Humidity 55    
Maximum Humidity 83    
Minimum Humidity 36    
Precipitation  
Precipitation 0.00 in - - ()
Sea Level Pressure  
Sea Level Pressure 30.16 in    
Wind  
Wind Speed 10 mph (SSW)    
Max Wind Speed 24 mph    
Max Gust Speed 29 mph    
Visibility 10 miles    
Events      
Averages and records for this station are not official NWS values.
T = Trace of Precipitation, MM = Missing Value Source: NWS Daily Summary

Daily Weather History Graph

Daily Weather History Graph

Search for Another Location

Airport or City:

Trip Planner

Search our weather history database for the weather conditions in past years. The results will help you decide how hot, cold, wet, or windy it might be!

Date:

Astronomy

Dec. 30, 2013 Rise Set
Actual Time 7:51 AM CST 5:06 PM CST
Civil Twilight 7:20 AM CST 5:37 PM CST
Nautical Twilight 6:45 AM CST 6:12 PM CST
Astronomical Twilight 6:12 AM CST 6:45 PM CST
Moon 5:42 AM CST (12/30) 3:41 PM CST (12/30)
Length of Visible Light 10h 17m
Length of Day
9h 14m
Waning Crescent, 4% of the Moon is Illuminated
Dec 30
Waning Crescent
Jan 1
New
Jan 7
First Quarter
Jan 15
Full
Jan 23
Last Quarter

Hourly Weather History & Observations

Time (CST) Temp. Windchill Dew Point Humidity Pressure Visibility Wind Dir Wind Speed Gust Speed Precip Events Conditions
12:15 AM 4.1 °F -5.1 °F -6.7 °F 61% 30.26 in 10.0 mi South 4.6 mph - N/A   Clear
12:35 AM 4.8 °F -2.3 °F -5.8 °F 62% 30.26 in 10.0 mi SSE 3.5 mph - N/A   Clear
12:55 AM 5.5 °F -3.4 °F -6.0 °F 59% 30.24 in 10.0 mi SSE 4.6 mph - N/A   Clear
1:15 AM 5.9 °F -4.5 °F -5.8 °F 59% 30.24 in 10.0 mi SE 5.8 mph - N/A   Clear
1:35 AM 6.4 °F -3.9 °F -5.1 °F 59% 30.23 in 10.0 mi SSE 5.8 mph - N/A   Clear
1:55 AM 7.5 °F -3.9 °F -5.8 °F 55% 30.22 in 10.0 mi SSE 6.9 mph - N/A   Clear
2:15 AM 8.2 °F -3.0 °F -4.7 °F 56% 30.22 in 10.0 mi SE 6.9 mph - N/A   Scattered Clouds
2:35 AM 9.0 °F -4.2 °F -5.6 °F 52% 30.22 in 10.0 mi SE 9.2 mph - N/A   Scattered Clouds
2:55 AM 9.5 °F -4.4 °F -6.3 °F 49% 30.22 in 10.0 mi SSE 10.4 mph - N/A   Mostly Cloudy
3:15 AM 10.0 °F -2.9 °F -6.7 °F 47% 30.21 in 10.0 mi SSE 9.2 mph - N/A   Overcast
3:35 AM 10.2 °F -3.5 °F -5.3 °F 50% 30.21 in 10.0 mi South 10.4 mph - N/A   Overcast
3:55 AM 10.9 °F -4.1 °F -6.2 °F 46% 30.20 in 10.0 mi SSE 12.7 mph - N/A   Mostly Cloudy
4:15 AM 11.3 °F -2.2 °F -5.3 °F 47% 30.19 in 10.0 mi South 10.4 mph - N/A   Overcast
4:35 AM 11.7 °F -2.5 °F -6.2 °F 45% 30.18 in 10.0 mi SSE 11.5 mph - N/A   Overcast
4:55 AM 12.2 °F -2.5 °F -6.2 °F 44% 30.16 in 10.0 mi SSE 12.7 mph - N/A   Overcast
5:15 AM 12.7 °F -4.6 °F -6.5 °F 42% 30.16 in 10.0 mi SSE 18.4 mph 21.9 mph N/A   Overcast
5:35 AM 12.9 °F -3.9 °F -6.2 °F 42% 30.15 in 10.0 mi SSE 17.3 mph 21.9 mph N/A   Overcast
5:55 AM 13.1 °F -3.1 °F -5.1 °F 44% 30.14 in 10.0 mi South 16.1 mph - N/A   Overcast
6:15 AM 13.5 °F -2.1 °F -4.2 °F 45% 30.13 in 10.0 mi SSE 15.0 mph 20.7 mph N/A   Overcast
6:35 AM 13.8 °F -2.7 °F -4.0 °F 45% 30.12 in 10.0 mi SSE 17.3 mph 24.2 mph N/A   Overcast
6:55 AM 14.0 °F -0.8 °F -3.8 °F 45% 30.12 in 10.0 mi SSE 13.8 mph 23.0 mph N/A   Overcast
7:15 AM 14.7 °F 0.1 °F -3.8 °F 44% 30.14 in 10.0 mi SSE 13.8 mph - N/A   Overcast
7:35 AM 14.9 °F 0.3 °F -3.5 °F 44% 30.14 in 10.0 mi South 13.8 mph - N/A   Overcast
7:55 AM 14.9 °F -1.8 °F -3.3 °F 45% 30.12 in 10.0 mi SSE 18.4 mph - N/A   Overcast
8:15 AM 15.6 °F 0.6 °F -3.5 °F 43% 30.11 in 10.0 mi SSE 15.0 mph - N/A   Overcast
8:35 AM 15.8 °F 2.1 °F -3.3 °F 43% 30.13 in 10.0 mi South 12.7 mph - N/A   Overcast
8:55 AM 16.7 °F 5.3 °F -2.9 °F 42% 30.14 in 10.0 mi South 9.2 mph - N/A   Overcast
9:15 AM 18.0 °F 6.1 °F -2.4 °F 41% 30.13 in 10.0 mi South 10.4 mph - N/A   Overcast
9:35 AM 18.5 °F 5.5 °F -2.6 °F 40% 30.13 in 10.0 mi South 12.7 mph 21.9 mph N/A   Overcast
9:55 AM 18.9 °F 5.9 °F -1.5 °F 41% 30.13 in 10.0 mi South 12.7 mph - N/A   Overcast
10:15 AM 19.9 °F 7.3 °F -0.9 °F 40% 30.12 in 10.0 mi South 12.7 mph - N/A   Overcast
10:35 AM 20.8 °F 7.3 °F -0.4 °F 40% 30.13 in 10.0 mi South 15.0 mph - N/A   Overcast
10:55 AM 21.9 °F 8.7 °F 0.9 °F 40% 30.12 in 10.0 mi South 15.0 mph 19.6 mph N/A   Overcast
11:15 AM 23.5 °F 12.4 °F 2.1 °F 40% 30.10 in 10.0 mi South 11.5 mph 18.4 mph N/A   Overcast
11:35 AM 25.5 °F 13.8 °F 3.2 °F 38% 30.09 in 10.0 mi South 13.8 mph - N/A   Overcast
11:55 AM 28.0 °F 16.5 °F 3.9 °F 36% 30.07 in 10.0 mi SSW 15.0 mph - N/A   Mostly Cloudy
12:15 PM 29.3 °F 19.1 °F 5.9 °F 37% 30.07 in 10.0 mi SSW 12.7 mph 19.6 mph N/A   Overcast
12:35 PM 30.9 °F 21.7 °F 7.9 °F 38% 30.06 in 10.0 mi SW 11.5 mph 19.6 mph N/A   Overcast
12:55 PM 31.1 °F 21.4 °F 9.5 °F 41% 30.05 in 10.0 mi SW 12.7 mph - N/A   Overcast
1:15 PM 32.0 °F 23.6 °F 11.1 °F 42% 30.05 in 10.0 mi SW 10.4 mph 16.1 mph N/A   Overcast
1:35 PM 32.5 °F 24.8 °F 12.4 °F 43% 30.04 in 10.0 mi SW 9.2 mph - N/A   Overcast
1:55 PM 34.0 °F 26.6 °F 12.6 °F 41% 30.03 in 10.0 mi SSW 9.2 mph - N/A   Overcast
2:15 PM 36.0 °F 32.1 °F 15.6 °F 44% 30.02 in 10.0 mi SW 4.6 mph - N/A   Overcast
2:55 PM 37.4 °F - 20.3 °F 50% 30.04 in 10.0 mi Calm Calm - N/A   Overcast
3:15 PM 38.5 °F 33.4 °F 23.2 °F 54% 30.04 in 10.0 mi West 6.9 mph - N/A   Overcast
3:35 PM 40.5 °F 34.1 °F 23.9 °F 52% 30.04 in 10.0 mi West 10.4 mph - N/A   Mostly Cloudy
3:55 PM 41.5 °F 33.2 °F 25.5 °F 53% 30.06 in 10.0 mi NW 17.3 mph 26.5 mph N/A   Overcast
4:15 PM 40.1 °F 30.5 °F 26.6 °F 59% 30.08 in 10.0 mi NNW 20.7 mph 26.5 mph N/A   Overcast
4:35 PM 40.1 °F 32.0 °F 26.6 °F 59% 30.08 in 10.0 mi NW 15.0 mph 24.2 mph N/A   Overcast
4:55 PM 39.7 °F 29.2 °F 25.5 °F 57% 30.10 in 10.0 mi NNW 24.2 mph 28.8 mph N/A   Overcast
5:15 PM 37.0 °F 27.0 °F 25.7 °F 64% 30.12 in 10.0 mi NNW 18.4 mph 25.3 mph N/A   Overcast
5:35 PM 35.1 °F 24.1 °F 24.8 °F 66% 30.13 in 10.0 mi NNW 19.6 mph 23.0 mph N/A   Overcast
5:55 PM 32.5 °F 22.3 °F 23.5 °F 69% 30.15 in 10.0 mi NNW 15.0 mph - N/A   Mostly Cloudy
6:15 PM 32.7 °F 21.4 °F 23.0 °F 67% 30.16 in 10.0 mi NNW 18.4 mph 21.9 mph N/A   Mostly Cloudy
6:35 PM 32.0 °F 20.8 °F 22.6 °F 68% 30.18 in 10.0 mi NNW 17.3 mph 21.9 mph N/A   Overcast
6:55 PM 31.5 °F 20.9 °F 21.9 °F 68% 30.19 in 10.0 mi NNW 15.0 mph 18.4 mph N/A   Overcast
7:15 PM 30.2 °F 19.3 °F 20.3 °F 67% 30.21 in 10.0 mi NW 15.0 mph 21.9 mph N/A   Scattered Clouds
7:35 PM 27.5 °F 16.8 °F 19.0 °F 71% 30.23 in 10.0 mi North 12.7 mph 18.4 mph N/A   Clear
7:55 PM 25.2 °F 13.3 °F 17.4 °F 72% 30.24 in 10.0 mi NNW 13.8 mph - N/A   Clear
8:15 PM 24.3 °F 13.3 °F 16.3 °F 72% 30.25 in 10.0 mi NNW 11.5 mph - N/A   Clear
8:35 PM 22.6 °F 12.6 °F 15.8 °F 75% 30.25 in 10.0 mi North 9.2 mph - N/A   Clear
8:55 PM 21.2 °F 9.5 °F 14.9 °F 77% 30.25 in 10.0 mi North 11.5 mph - N/A   Clear
9:15 PM 20.3 °F 9.8 °F 13.8 °F 76% 30.26 in 10.0 mi NNW 9.2 mph - N/A   Clear
9:35 PM 18.5 °F 8.4 °F 12.9 °F 79% 30.26 in 10.0 mi NNW 8.1 mph - N/A   Clear
9:55 PM 17.4 °F 6.2 °F 12.2 °F 80% 30.26 in 10.0 mi North 9.2 mph - N/A   Clear
10:15 PM 17.2 °F 6.8 °F 11.5 °F 78% 30.27 in 10.0 mi North 8.1 mph - N/A   Clear
10:35 PM 16.3 °F 4.1 °F 10.8 °F 79% 30.27 in 10.0 mi North 10.4 mph - N/A   Clear
10:55 PM 15.3 °F 7.9 °F 10.2 °F 80% 30.27 in 10.0 mi NNW 4.6 mph - N/A   Clear
11:15 PM 13.5 °F 2.2 °F 8.4 °F 80% 30.26 in 10.0 mi North 8.1 mph - N/A   Clear
11:35 PM 12.9 °F - 8.4 °F 82% 30.26 in 10.0 mi Calm Calm - N/A   Clear
11:55 PM 12.0 °F - 7.9 °F 83% 30.26 in 10.0 mi Calm Calm - N/A   Clear